Radiation Dose at Monitoring Post of Fukushima Daini Nuclear Power Station
Date,Time,MP-1(microSv/h),MP-2(microSv/h),MP-3(microSv/h),MP-4(microSv/h),MP-5(microSv/h),MP-6(microSv/h),MP-7(microSv/h),Wind Direction,Wind Velocity(m/s),Rain
2014/10/06,00:00,0.623,0.447,0.654,0.589,0.592,0.269,0.238,north-northwest,6.5,Yes
2014/10/06,00:10,0.620,0.448,0.656,0.589,0.593,0.271,0.239,north,8.1,Yes
2014/10/06,00:20,0.619,0.445,0.654,0.587,0.594,0.269,0.238,north-northwest,6.6,Yes
2014/10/06,00:30,0.619,0.446,0.655,0.589,0.593,0.270,0.238,northwest,7.2,Yes
2014/10/06,00:40,0.620,0.447,0.654,0.589,0.594,0.268,0.237,north-northwest,6.9,Yes
2014/10/06,00:50,0.622,0.447,0.654,0.590,0.593,0.272,0.238,north-northwest,7.2,Yes
2014/10/06,01:00,0.620,0.446,0.656,0.591,0.594,0.268,0.237,north-northwest,8.2,Yes
2014/10/06,01:10,0.617,0.445,0.653,0.589,0.593,0.269,0.237,north-northwest,8.2,Yes
2014/10/06,01:20,0.620,0.445,0.655,0.589,0.594,0.268,0.236,north-northwest,7.3,Yes
2014/10/06,01:30,0.621,0.447,0.656,0.590,0.595,0.270,0.238,north-northwest,8.3,Yes
2014/10/06,01:40,0.617,0.444,0.652,0.588,0.593,0.269,0.236,north-northwest,7.3,Yes
2014/10/06,01:50,0.615,0.441,0.651,0.586,0.590,0.268,0.236,north-northwest,8.6,Yes
2014/10/06,02:00,0.615,0.443,0.651,0.586,0.589,0.269,0.236,north-northwest,8.9,Yes
2014/10/06,02:10,0.614,0.442,0.653,0.584,0.590,0.267,0.234,north-northwest,9.2,Yes
2014/10/06,02:20,0.613,0.441,0.651,0.584,0.590,0.268,0.235,north-northwest,10.0,Yes
2014/10/06,02:30,0.612,0.441,0.651,0.584,0.588,0.267,0.236,north-northwest,8.9,Yes
2014/10/06,02:40,0.613,0.440,0.650,0.583,0.589,0.268,0.236,north-northwest,9.2,Yes
2014/10/06,02:50,0.614,0.440,0.651,0.583,0.591,0.268,0.236,north-northwest,8.3,Yes
2014/10/06,03:00,0.616,0.441,0.652,0.586,0.592,0.269,0.237,north-northwest,9.0,Yes
2014/10/06,03:10,0.612,0.441,0.650,0.585,0.593,0.268,0.236,north-northwest,9.5,Yes
2014/10/06,03:20,0.613,0.438,0.650,0.581,0.590,0.268,0.236,north-northwest,8.9,Yes
2014/10/06,03:30,0.611,0.438,0.649,0.579,0.589,0.267,0.236,north-northwest,9.8,Yes
2014/10/06,03:40,0.610,0.438,0.648,0.580,0.588,0.268,0.237,north-northwest,8.8,Yes
2014/10/06,03:50,0.608,0.436,0.647,0.578,0.589,0.266,0.235,north-northwest,7.2,Yes
2014/10/06,04:00,0.606,0.434,0.646,0.579,0.590,0.267,0.236,north-northwest,9.0,Yes
2014/10/06,04:10,0.605,0.434,0.646,0.579,0.587,0.266,0.235,north,8.9,Yes
2014/10/06,04:20,0.603,0.430,0.640,0.575,0.584,0.265,0.233,north-northwest,9.6,Yes
2014/10/06,04:30,0.604,0.431,0.643,0.577,0.586,0.265,0.236,north-northwest,10.3,Yes
2014/10/06,04:40,0.606,0.432,0.643,0.580,0.588,0.266,0.234,north,11.2,Yes
2014/10/06,04:50,0.602,0.431,0.639,0.576,0.586,0.263,0.233,north,9.3,Yes
2014/10/06,05:00,0.600,0.427,0.636,0.574,0.584,0.265,0.234,north-northwest,8.2,Yes
2014/10/06,05:10,0.602,0.429,0.639,0.579,0.587,0.265,0.235,north-northwest,8.9,Yes
2014/10/06,05:20,0.601,0.427,0.638,0.579,0.586,0.265,0.234,north-northwest,8.6,Yes
2014/10/06,05:30,0.603,0.428,0.641,0.581,0.588,0.266,0.235,north,8.9,Yes
2014/10/06,05:40,0.604,0.431,0.642,0.583,0.590,0.266,0.236,north,8.3,Yes
2014/10/06,05:50,0.604,0.428,0.642,0.582,0.590,0.267,0.235,north,8.4,Yes
2014/10/06,06:00,0.605,0.430,0.644,0.581,0.591,0.265,0.235,north,9.5,Yes
2014/10/06,06:10,0.606,0.429,0.642,0.581,0.590,0.267,0.235,north,8.1,Yes
2014/10/06,06:20,0.605,0.428,0.642,0.580,0.589,0.265,0.238,north,7.8,Yes
2014/10/06,06:30,0.606,0.431,0.641,0.582,0.591,0.269,0.238,north,6.1,Yes
2014/10/06,06:40,0.608,0.433,0.640,0.581,0.593,0.269,0.240,north,6.9,Yes
2014/10/06,06:50,0.609,0.433,0.643,0.584,0.594,0.272,0.242,north,6.9,Yes
2014/10/06,07:00,0.609,0.432,0.640,0.584,0.594,0.272,0.241,north,6.4,Yes
2014/10/06,07:10,0.611,0.436,0.645,0.586,0.596,0.275,0.244,northeast,6.2,Yes
2014/10/06,07:20,0.612,0.437,0.649,0.591,0.600,0.274,0.244,northeast,9.8,Yes
2014/10/06,07:30,0.613,0.435,0.650,0.591,0.599,0.272,0.243,northeast,9.7,Yes
2014/10/06,07:40,0.611,0.434,0.648,0.591,0.599,0.272,0.240,northeast,11.2,Yes
2014/10/06,07:50,0.612,0.435,0.651,0.591,0.599,0.268,0.240,northeast,12.4,Yes
2014/10/06,08:00,0.610,0.431,0.649,0.589,0.595,0.269,0.237,northeast,11.0,Yes
2014/10/06,08:10,0.610,0.431,0.650,0.589,0.594,0.267,0.239,north-northeast,8.9,Yes
2014/10/06,08:20,0.601,0.426,0.642,0.580,0.589,0.266,0.235,east-northeast,12.3,Yes
2014/10/06,08:30,0.600,0.425,0.636,0.578,0.589,0.266,0.236,north-northeast,9.8,Yes
2014/10/06,08:40,0.600,0.427,0.639,0.579,0.590,0.265,0.238,north-northeast,10.7,Yes
2014/10/06,08:50,0.596,0.425,0.636,0.577,0.589,0.265,0.235,north-northeast,12.8,Yes
2014/10/06,09:00,0.597,0.424,0.634,0.577,0.588,0.263,0.235,north-northeast,11.7,Yes
2014/10/06,09:10,0.602,0.424,0.636,0.579,0.590,0.264,0.235,north,9.8,Yes
2014/10/06,09:20,0.594,0.419,0.632,0.575,0.584,0.260,0.231,north-northwest,8.1,Yes
2014/10/06,09:30,0.589,0.415,0.626,0.571,0.581,0.261,0.232,north-northeast,12.1,Yes
2014/10/06,09:40,0.592,0.418,0.632,0.577,0.585,0.260,0.232,north,8.2,Yes
2014/10/06,09:50,0.587,0.412,0.625,0.571,0.577,0.258,0.228,north-northwest,8.1,Yes
2014/10/06,10:00,0.581,0.410,0.619,0.565,0.575,0.256,0.227,north,13.0,Yes
2014/10/06,10:10,0.584,0.412,0.622,0.569,0.574,0.257,0.228,north,8.9,Yes
2014/10/06,10:20,0.575,0.407,0.613,0.560,0.568,0.254,0.225,north,15.1,Yes
2014/10/06,10:30,0.575,0.408,0.613,0.564,0.569,0.255,0.228,north-northwest,10.2,Yes
2014/10/06,10:40,0.573,0.406,0.612,0.561,0.562,0.253,0.226,northwest,8.8,Yes
2014/10/06,10:50,0.575,0.407,0.611,0.561,0.565,0.254,0.227,north-northwest,8.5,Yes
2014/10/06,11:00,0.577,0.404,0.612,0.564,0.566,0.253,0.226,north-northeast,6.7,Yes
2014/10/06,11:10,0.572,0.404,0.608,0.559,0.563,0.251,0.225,west-southwest,12.6,Yes
2014/10/06,11:20,0.569,0.400,0.603,0.557,0.563,0.253,0.225,north,16.9,Yes
2014/10/06,11:30,0.567,0.401,0.608,0.563,0.566,0.252,0.227,north-northwest,19.4,Yes
2014/10/06,11:40,0.565,0.401,0.610,0.562,0.566,0.253,0.226,north-northwest,12.2,Yes
2014/10/06,11:50,0.575,0.404,0.615,0.567,0.571,0.253,0.228,north-northwest,10.2,Yes
2014/10/06,12:00,0.580,0.407,0.618,0.572,0.571,0.254,0.229,north-northwest,12.1,Yes
2014/10/06,12:10,0.586,0.410,0.625,0.572,0.574,0.256,0.230,north-northwest,15.0,Yes
2014/10/06,12:20,0.589,0.410,0.631,0.579,0.579,0.260,0.231,north-northwest,13.7,Yes
2014/10/06,12:30,0.592,0.413,0.635,0.581,0.583,0.260,0.232,north-northwest,15.8,Yes
2014/10/06,12:40,0.594,0.413,0.637,0.583,0.585,0.259,0.232,north-northwest,16.3,Yes
2014/10/06,12:50,0.594,0.414,0.638,0.585,0.588,0.261,0.232,north-northwest,16.3,Yes
2014/10/06,13:00,0.597,0.414,0.640,0.585,0.587,0.259,0.231,north-northwest,21.6,Yes
2014/10/06,13:10,0.597,0.414,0.640,0.585,0.586,0.260,0.232,north-northwest,18.2,Yes
2014/10/06,13:20,0.598,0.415,0.642,0.586,0.588,0.258,0.230,northwest,14.6,No
2014/10/06,13:30,0.598,0.413,0.643,0.586,0.589,0.261,0.231,north-northwest,16.9,Yes
2014/10/06,13:40,0.600,0.415,0.642,0.588,0.589,0.260,0.229,north,20.6,Yes
2014/10/06,13:50,0.600,0.415,0.644,0.587,0.588,0.262,0.231,northwest,14.8,Yes
2014/10/06,14:00,0.601,0.415,0.644,0.587,0.589,0.260,0.231,north-northwest,15.4,No
2014/10/06,14:10,0.602,0.417,0.645,0.589,0.590,0.261,0.230,northwest,13.7,No
2014/10/06,14:20,0.603,0.416,0.645,0.589,0.590,0.262,0.230,north-northwest,12.9,No
2014/10/06,14:30,0.606,0.416,0.645,0.588,0.589,0.263,0.231,northwest,14.0,No
2014/10/06,14:40,0.606,0.416,0.646,0.590,0.589,0.261,0.230,north-northwest,15.8,No
2014/10/06,14:50,0.605,0.416,0.647,0.589,0.590,0.262,0.232,northwest,14.1,No
2014/10/06,15:00,0.606,0.418,0.646,0.591,0.590,0.263,0.230,northwest,14.1,No
2014/10/06,15:10,0.606,0.418,0.650,0.594,0.591,0.261,0.232,north-northwest,11.5,No
2014/10/06,15:20,0.607,0.418,0.649,0.591,0.591,0.265,0.233,north-northwest,14.5,No
2014/10/06,15:30,0.606,0.419,0.649,0.593,0.592,0.265,0.231,northwest,13.7,No
2014/10/06,15:40,0.607,0.421,0.651,0.594,0.592,0.263,0.232,northwest,12.9,No
2014/10/06,15:50,0.608,0.421,0.651,0.593,0.591,0.264,0.231,northwest,12.0,No
2014/10/06,16:00,0.610,0.419,0.650,0.594,0.591,0.262,0.233,northwest,11.8,No
2014/10/06,16:10,0.608,0.419,0.652,0.595,0.593,0.265,0.231,northwest,9.8,No
2014/10/06,16:20,0.608,0.420,0.652,0.594,0.592,0.265,0.230,north-northwest,9.8,No
2014/10/06,16:30,0.610,0.422,0.653,0.595,0.592,0.263,0.233,northwest,9.8,No
2014/10/06,16:40,0.610,0.421,0.653,0.594,0.593,0.265,0.231,northwest,8.2,No
2014/10/06,16:50,0.610,0.422,0.654,0.595,0.591,0.265,0.233,northwest,9.0,No
2014/10/06,17:00,0.612,0.422,0.653,0.594,0.592,0.265,0.232,north-northwest,7.3,No
2014/10/06,17:10,0.610,0.421,0.655,0.593,0.591,0.264,0.233,north-northwest,5.7,No
2014/10/06,17:20,0.613,0.422,0.653,0.595,0.592,0.266,0.232,north-northwest,5.6,No
2014/10/06,17:30,0.614,0.421,0.653,0.594,0.592,0.265,0.233,northwest,3.3,No
2014/10/06,17:40,0.612,0.422,0.654,0.595,0.591,0.266,0.233,west-northwest,2.5,No
2014/10/06,17:50,0.609,0.421,0.653,0.597,0.593,0.266,0.232,west-northwest,1.2,No
2014/10/06,18:00,0.611,0.422,0.657,0.594,0.591,0.265,0.232,north,1.6,No
2014/10/06,18:10,0.613,0.422,0.654,0.595,0.591,0.267,0.232,north-northeast,4.1,No
2014/10/06,18:20,0.612,0.421,0.654,0.595,0.592,0.266,0.233,north-northeast,3.1,No
2014/10/06,18:30,0.613,0.422,0.654,0.594,0.591,0.266,0.233,north-northeast,6.4,No
2014/10/06,18:40,0.612,0.423,0.652,0.596,0.592,0.264,0.233,north-northeast,8.5,No
2014/10/06,18:50,0.614,0.423,0.654,0.596,0.593,0.267,0.233,north-northeast,8.1,No
2014/10/06,19:00,0.615,0.424,0.654,0.595,0.592,0.265,0.234,north,6.7,No
2014/10/06,19:10,0.616,0.425,0.654,0.595,0.593,0.266,0.233,north,7.5,No
2014/10/06,19:20,0.614,0.425,0.653,0.595,0.592,0.266,0.235,north-northwest,6.3,No
2014/10/06,19:30,0.615,0.426,0.654,0.597,0.594,0.269,0.234,north-northwest,7.6,Yes
2014/10/06,19:40,0.617,0.427,0.655,0.595,0.599,0.268,0.236,north,7.8,Yes
2014/10/06,19:50,0.617,0.425,0.655,0.599,0.595,0.270,0.237,north,7.1,Yes
2014/10/06,20:00,0.620,0.429,0.659,0.599,0.597,0.271,0.239,north,6.7,Yes
2014/10/06,20:10,0.621,0.430,0.659,0.598,0.599,0.274,0.239,north,7.4,Yes
2014/10/06,20:20,0.620,0.430,0.658,0.600,0.596,0.273,0.240,north,8.8,Yes
2014/10/06,20:30,0.621,0.429,0.654,0.596,0.595,0.273,0.238,north,7.8,Yes
2014/10/06,20:40,0.620,0.429,0.656,0.598,0.595,0.272,0.239,north,8.0,Yes
2014/10/06,20:50,0.620,0.429,0.657,0.596,0.597,0.274,0.239,north,6.9,Yes
2014/10/06,21:00,0.620,0.430,0.659,0.597,0.595,0.274,0.240,north,8.3,Yes
2014/10/06,21:10,0.621,0.430,0.657,0.596,0.595,0.275,0.240,north-northwest,7.5,Yes
2014/10/06,21:20,0.617,0.430,0.657,0.597,0.596,0.273,0.239,north-northwest,7.0,Yes
2014/10/06,21:30,0.619,0.429,0.654,0.594,0.596,0.273,0.238,north-northwest,6.8,Yes
2014/10/06,21:40,0.617,0.428,0.657,0.594,0.595,0.272,0.238,north,6.1,Yes
2014/10/06,21:50,0.616,0.427,0.656,0.596,0.593,0.273,0.237,north,5.5,Yes
2014/10/06,22:00,0.615,0.427,0.655,0.591,0.594,0.271,0.237,north,4.7,Yes
2014/10/06,22:10,0.613,0.425,0.655,0.590,0.591,0.272,0.238,north,3.7,Yes
2014/10/06,22:20,0.614,0.425,0.652,0.591,0.593,0.271,0.237,north-northeast,4.4,Yes
2014/10/06,22:30,0.615,0.425,0.650,0.592,0.593,0.272,0.235,north,3.5,Yes
2014/10/06,22:40,0.611,0.424,0.650,0.590,0.591,0.269,0.235,north,4.0,Yes
2014/10/06,22:50,0.613,0.424,0.650,0.590,0.591,0.268,0.235,north-northeast,5.0,Yes
2014/10/06,23:00,0.611,0.425,0.650,0.588,0.590,0.267,0.235,northeast,6.3,Yes
2014/10/06,23:10,0.612,0.423,0.649,0.589,0.591,0.268,0.234,north-northeast,7.6,Yes
2014/10/06,23:20,0.610,0.423,0.650,0.587,0.591,0.267,0.234,north,5.3,Yes
2014/10/06,23:30,0.612,0.423,0.649,0.589,0.590,0.269,0.233,north-northeast,5.9,Yes
2014/10/06,23:40,0.613,0.424,0.648,0.589,0.589,0.266,0.232,north-northeast,5.2,Yes
2014/10/06,23:50,0.611,0.422,0.648,0.587,0.590,0.267,0.232,north,3.9,Yes
